Simultaneous Nadir Overpasses (SNOs) Predictions

Prediction of SNOs between GOES-15 and NOAA-20 Satellite Orbit:

Table of predicted SNOs for the next 14.0 days since TLE Epoch: 10/4/2019
Index Date Time (GOES-15) GOES-15 Lat,Lon NOAA-20 Lat,Lon Distance(km) Time Diff (sec)
1 10/05/2019 22:01:40 -0.27,-127.71 -0.69,-129.49 204.08 80
2 10/06/2019 21:45:37 -0.28,-127.75 0.37,-124.97 316.59 80
3 10/08/2019 10:04:45 0.26,-127.87 0.80,-130.25 271.71 80
4 10/09/2019 09:48:40 0.26,-127.90 -0.21,-125.72 248.66 80
5 10/10/2019 22:07:58 -0.24,-127.89 -0.94,-131.03 357.49 80
6 10/11/2019 21:51:53 -0.25,-127.93 0.07,-126.50 162.96 80
7 10/13/2019 10:11:03 0.23,-128.05 1.05,-131.78 425.45 80
8 10/14/2019 09:54:58 0.24,-128.08 0.04,-127.25 94.63 80
9 10/16/2019 21:58:10 -0.23,-128.09 -0.23,-128.03 7.35 80




NCC Satellite Simultaneous Nadir Overpasses (SNOs) Prediction Service
